Hanford, WA
on Thursday, February 7, 2013

Thursday
Previous Day Next Day
Daily Summary
 ActualAverage (KMWH)Record (KMWH)
Temperature
Mean Temperature °F 34°F  
Max Temperature 50°F 41°F 55°F (1998)
Min Temperature 30°F 26°F -5°F (1985)
Degree Days
Heating Degree Days 25 32  
Month to date heating degree days 225  
Since 1 July heating degree days 3899  
Cooling Degree Days 0 0  
Month to date cooling degree days 0  
Year to date cooling degree days 0  
Moisture
Dew Point 30°F   
Average Humidity 68    
Maximum Humidity 94    
Minimum Humidity 35    
Precipitation
Precipitation 0.00 in 0.03 in 0.26 in (2002)
Month to date precipitation 0.26  
Year to date precipitation 1.40  
Wind
Wind Speed 8 mph   
Max Wind Speed 12 mph   
Max Gust Speed mph   
Visibility 15 miles   
Events     

Key: T is trace of precipitation, MM is missing value
Source: NWS Daily Summary
Time(PST)TemperatureDew PointHumidity Pressure Visibility Wind DirectionWind SpeedGust SpeedPrecipitationEvents Conditions
12:50 AM 37.6°F 32.2°F 81% 29.89 in 15.0 miles NW 9.2 mph - N/A   Overcast
1:50 AM 38.7°F 33.4°F 81% 29.88 in 15.0 miles NW 10.4 mph - N/A   Overcast
2:50 AM 38.1°F 33.4°F 83% 29.88 in 15.0 miles WNW 9.2 mph - N/A   Overcast
3:50 AM 37.4°F 33.3°F 85% 29.87 in 15.0 miles NW 8.1 mph - N/A   Overcast
4:50 AM 36.3°F 33.3°F 89% 29.88 in 15.0 miles NW 9.2 mph - N/A   Overcast
5:50 AM 34.0°F 31.5°F 90% 29.88 in 15.0 miles NW 5.8 mph - N/A   Overcast
6:50 AM 30.7°F 29.3°F 94% 29.90 in 15.0 miles West 1.2 mph - N/A   Overcast
7:50 AM 33.6°F 30.9°F 90% 29.90 in 15.0 miles East 2.3 mph - N/A   Overcast
8:50 AM 37.0°F 31.8°F 81% 29.94 in 15.0 miles WNW 4.6 mph - N/A   Mostly Cloudy
9:50 AM 43.5°F 35.1°F 72% 29.96 in 15.0 miles West 8.1 mph - N/A   Scattered Clouds
10:50 AM 48.4°F 33.1°F 56% 29.97 in 15.0 miles West 11.5 mph - N/A   Scattered Clouds
11:50 AM 48.2°F 26.1°F 42% 29.98 in 15.0 miles WNW 9.2 mph - N/A   Mostly Cloudy
12:50 PM 50.4°F 25.7°F 38% 29.96 in 15.0 miles WNW 8.1 mph - N/A   Mostly Cloudy
1:50 PM 49.6°F 23.2°F 35% 29.96 in 15.0 miles NNW 5.8 mph - N/A   Mostly Cloudy
2:50 PM 48.9°F 26.1°F 41% 29.96 in 15.0 miles NNE 4.6 mph - N/A   Mostly Cloudy
3:50 PM 49.1°F 23.5°F 37% 29.95 in 15.0 miles WSW 3.5 mph - N/A   Mostly Cloudy
4:50 PM 45.9°F 30.9°F 56% 29.96 in 15.0 miles SSW 8.1 mph - N/A   Mostly Cloudy
5:50 PM 40.8°F 30.7°F 67% 29.98 in 15.0 miles SSW 10.4 mph - N/A   Mostly Cloudy
6:50 PM 38.3°F 28.6°F 68% 30.00 in 15.0 miles West 10.4 mph - N/A   Scattered Clouds
10:50 PM 36.0°F 24.4°F 63% 30.06 in 15.0 miles West 9.2 mph - N/A   Partly Cloudy
11:50 PM 32.0°F 23.4°F 70% 30.07 in 15.0 miles West 8.1 mph - N/A   Partly Cloudy
Moon Phase
Feb. 07 Feb. 10 Feb. 17 Feb. 25 Mar. 04
Sunrise:07:13 AM (PST) Moon Rise:05:03 AM (PST)2/7
Sunset:05:12 PM (PST) Moon Set:02:37 PM (PST)2/7

Copyright © 2014 The Weather Underground, Inc.